Location: Newark
(52.5667°N, 8.8000°W)
Time: 11:04:22
(UTC+00:00)

N. Korean satellite - Pass Details

Date: 27 January 2020
Orbit: 456 x 505 km, 97.2° (Epoch: 23 February)

Event Time Altitude Azimuth Distance (km) Brightness Sun altitude
Rises 06:23:31 0° 15° (NNE) 2,540 10.3 -18.3°
Reaches altitude 10° 06:25:36 10° 19° (NNE) 1,665 9.4 -18.0°
Maximum altitude 06:29:09 64° 101° (ESE) 543 7.0 -17.4°
Drops below altitude 10° 06:32:44 10° 184° (S) 1,678 9.3 -16.9°
Sets 06:34:50 0° 188° (S) 2,563 10.3 -16.6°
